www.pogodaiklimat.ru

Погода и климат >> Архив погоды >> Россия >> Якутия >> Тегюльтя


ПОГОДА в Тегюльте

  • Прогноз погоды в Тегюльте
  • Монитор погоды в Тегюльте
  • Климат города

АРХИВ ПОГОДЫ в Тегюльте

Время (UTC), дата Ветер
(напр.,м/с)
 
Видим.   Явления Облачность Т
(С)
Тd
(С)
f
(%)
Тe
(С)
Тes
(С)
Комфортность P
(гПа)
Po
(гПа)
Тmin
(С)
Tmax
(С)
R
(мм)
R24
(мм)
S
(см)
18 12.07 штиль 0 20 км дым 10/0
[Ac trans Ci fib]
+16.3 +14.4 89 +16 +16 999.1 979.3
21 12.07 штиль 0 20 км дым 10/0
[Ac trans Ci fib]
+15.3 +13.4 88 +15 +16 999.5 979.5
00 13.07 СВ 2 20 км дым 8/0
[Ci fib]
+22.6 +17.4 72 +27 +35 душно 999.1 979.7 +15.2
03 13.07 С 2 10 км дым 10/0
[Cs]
+23.9 +11.1 45 +25 +36 комфорт 999.4 980.0
06 13.07 С 2 10 км дым 10/0
[Cs]
+26.3 +10.5 37 +27 +35 жарко 998.8 979.5
09 13.07 С 2 10 км дым 10/0
[Cs]
+26.1 +11.1 39 +27 +29 жарко 998.8 979.5
12 13.07 З 2 10 км дым 10/10 600 м
[Cb cap]
+23.0 +15.0 61 +27 +27 душно 999.2 979.8 +26.3
15 13.07 СВ 1 10 км дым {ливн. осадки} 10/10 600 м
[Cb cap]
+17.1 +14.5 85 +18 +18 999.8 980.0
18 13.07 штиль 0 10 км дым 10/10 1000 м
[Sc]
+16.7 +14.5 87 +17 +17 999.8 980.0
21 13.07 штиль 0 10 км дым 10/0
[Cs]
+15.7 +14.8 94 +15 +17 1000.2 980.2
00 14.07 В 1 10 км дым 10/0
[Cs]
+20.3 +16.9 81 +24 +32 комфорт 1000.0 980.2 +15.7 8
03 14.07 ЮЗ 2 20 км дым 10/0
[Cs]
+22.4 +9.5 44 +24 +35 комфорт 999.8 980.2
06 14.07 ЮЗ 3 20 км дым 10/10 600 м
[Cb cap]
+23.7 +7.3 35 +24 +24 комфорт 999.6 980.2
09 14.07 ЮЗ 1 10 км слабый ливневой дождь 10/10 600 м
[Cb cap]
+19.8 +17.9 89 +24 +24 комфорт 1001.2 981.2
12 14.07 ЮЗ 2 10 км слабый ливневой дождь 10/10 600 м
[Cb cap]
+18.7 +16.9 89 +20 +20 1002.5 982.7 +23.7 16
15 14.07 штиль 0 4000 м слабый ливневой дождь 10/10 600 м
[Cb cap]
+16.8 +15.9 94 +17 +17 1003.4 983.5
18 14.07 ЮЗ 1 10 км слабый ливневой дождь 10/10 600 м
[Cb cap]
+16.7 +15.6 93 +18 +18 1003.6 983.8
21 14.07 ЮЗ 1 2000 м мгла {ливн. осадки} ?/? +16.3 +15.1 93 +17 +17 1002.6 982.7
00 15.07 ЮЗ 2 4000 м мгла {ливн. осадки} ?/? +15.5 +13.7 89 +15 +15 1003.9 983.8 +15.4 7
03 15.07 ЮЗ 2 4000 м мгла {туман} ?/? +16.5 +14.0 85 +17 +17 1004.3 984.4
06 15.07 ЮЗ 4 4000 м мгла {туман} ?/? +16.7 +12.9 78 +16 +16 1004.9 985.0
09 15.07 ЮЗ 2 4000 м мгла {туман} ?/? +16.7 +12.8 78 +17 +17 1005.7 985.6
12 15.07 ЮЗ 1 20 км дым 10/0
[Ac trans Ci fib]
+15.0 +14.1 94 +15 +15 1006.7 986.6 +16.8
15 15.07 ЮВ 1 20 км дым 10/0
[As op]
+14.6 +12.4 87 +15 +15 1006.5 986.4
18 15.07 штиль 0 20 км дым 10/0
[As op]
+14.0 +12.2 89 +14 +14 1006.0 985.8
21 15.07 С 1 20 км дым 10/0
[Ac As]
+13.5 +11.9 90 +14 +14 1006.6 986.4
00 16.07 штиль 0 20 км дым 10/0
[Ac trans Ci fib]
+17.5 +15.1 86 +17 +23 1007.6 987.6 +13.4
03 16.07 З 2 20 км дым 10/0
[Ac trans Ci fib]
+22.3 +9.6 44 +24 +30 комфорт 1006.8 987.1
06 16.07 З 1 20 км дым 10/6 1000 м
[Cu med, cong Ci fib]
+25.4 +8.6 34 +26 +29 жарко 1005.0 985.6
09 16.07 СЗ 1 20 км дым 10/8 1000 м
[Cu med, cong Ci fib]
+27.0 +12.2 40 +28 +29 жарко 1004.7 985.4
12 16.07 штиль 0 20 км дым 10/0
[Ci fib]
+23.0 +15.0 61 +27 +27 душно 1004.9 985.4 +27.0
15 16.07 штиль 0 20 км дым 10/0
[Ci fib]
+15.8 +13.7 87 +16 +16 1006.3 986.2
18 16.07 штиль 0 10 км дым 10/0
[Ci fib]
+13.3 +12.4 94 +13 +13 1006.4 986.8
21 16.07 штиль 0 500 м туман ?/? +13.5 +13.3 99 +13 +13 1006.5 986.3
00 17.07 С 1 20 км дым {туман} 10/8 1000 м
[Cu med, cong Ci fib]
+18.4 +15.9 85 +20 +22 1005.4 985.6 +13.2
03 17.07 СВ 1 20 км дым 6/6 1000 м
[Cu hum]
+27.9 +18.4 56 +33 +39 очень
душно
1002.8 983.7
06 17.07 СВ 2 20 км дым 6/6 1000 м
[Cu med, cong Cs]
+28.2 +15.5 46 +31 +35 душно 1001.9 982.8
09 17.07 ЮЗ 2 20 км дым 10/0
[Ac und]
+26.9 +16.7 54 +31 +31 душно 1002.1 982.8
12 17.07 З 2 20 км в посл. час ливневой дождь 10/6 600 м
[Cb cap Ac und]
+20.9 +19.8 93 +26 +26 душно 1003.2 983.5 +28.5 1
15 17.07 ЮЗ 1 20 км дым {ливн. осадки} 10/0
[Ac und]
+18.6 +18.0 96 +21 +21 комфорт 1004.4 984.6
18 17.07 ЮЗ 2 20 км слабый ливневой дождь 10/6 600 м
[Cb cap Ac und]
+18.3 +18.0 98 +19 +19 1005.2 985.4
21 17.07 З 2 20 км слабый дождь 10/10 600 м
[Frnb Ns]
+13.5 +12.2 92 +13 +13 1007.2 987.0
00 18.07 З 2 20 км дым {дождь} 10/3 600 м
[Frnb As op]
+14.9 +11.0 77 +15 +16 1007.9 987.7 +13.4 3
03 18.07 З 3 20 км дым 10/0
[Ac trans Ci fib]
+15.9 +3.2 43 +16 +22 1008.4 988.2
06 18.07 З 4 50 км ясно +20.2 +3.0 32 +21 +27 комфорт 1008.5 988.6
09 18.07 З 5
{10}
20 км дым ясно +19.5 +3.8 35 +20 +21 1008.8 988.9
12 18.07 штиль 0 20 км дым 6/0
[Ci fib]
+13.5 +7.4 67 +13 +13 1011.5 991.2 +21.0
15 18.07 штиль 0 20 км дым 3/0
[Ci fib]
+4.8 +2.8 87 +4 +4 1013.2 992.2
18 18.07 штиль 0 20 км дым ясно +0.9 +0.1 94 -0 -0 1015.2 993.7
21 18.07 З 1 20 км дым ясно +2.6 +1.8 94 +1 +3 1016.2 994.9
00 19.07 Ю 1 20 км дым ясно +9.5 +4.4 70 +9 +19 опасность
простуды
1015.5 994.8 +0.8
03 19.07 ЮВ 1 20 км дым ясно +19.0 +4.5 38 +20 +36 опасность
простуды
1014.2 994.1
06 19.07 З 1 20 км дым ясно +21.3 +6.2 37 +22 +33 комфорт 1013.5 993.6
09 19.07 СВ 1 20 км дым ясно +22.0 +8.7 43 +23 +26 комфорт 1012.2 992.4
12 19.07 штиль 0 20 км дым ясно +16.9 +6.9 52 +17 +17 1012.1 992.1 +22.2

 

Местоположение метеостанции Тегюльтя (Якутия, Россия): широта 60.47 долгота 130.00 высота над уровнем моря 171 м.

В архиве по умолчанию представлена погода в Тегюльте за последнюю неделю. Архивные данные за месяц целиком и за предыдущие месяцы, начиная с января 2011 года, Вы можете получить, выбрав интересующий диапазон дат из раскрывающегося списка и нажав кнопку "Ввод!".


*Определитесь, кто Вы:
робот инопланетянин человек

Внимание! Время в таблицах - всемирное. Для получения местного времени необходимо прибавить поправку, которая в Тегюльте равна 9 ч.

Смотрите также архив погоды в соседних городах и на ближайших метеорологических станциях:

Погода в Амге (Якутия, Россия) (114 км)
Погода в Покровске (Якутия, Россия) (122 км)
Погода в Якутске (Якутия, Россия) (172 км)
Погода в Буяге (Якутия, Россия) (189 км)
Погода в Усть-Миле (Якутия, Россия) (191 км)
Погода в Учуре (Якутия, Россия) (196 км)
Погода в Угино (Якутия, Россия) (221 км)
Погода в Чурапче (Якутия, Россия) (222 км)
Погода в Усть-Мае (Якутия, Россия) (242 км)
Погода в Намцах (Якутия, Россия) (251 км)

Пояснения к столбцам:

Ветер - указаны скорость ветра в м/с - средняя за 10 мин, порывы в срок и между сроками (в фигурных скобках) и направление, откуда дует ветер: С - северный, СВ - северо-восточный, В - восточный, ЮВ - юго-восточный, Ю - южный, ЮЗ - юго-западный, З - западный, СЗ - северо-западный.
Видимость - горизонтальная дальность видимости в метрах или километрах. При видимости от 1 до 10 км при отсутствии осадков обычно наблюдается дымка, при ухудшении видимости до 1 км и менее - туман. В сухую погоду видимость может ухудшаться дымом, пылью или мглою.
Явления - указаны атмосферные явления, наблюдавшиеся в срок или в последний час перед сроком; фигурными скобками обозначены явления, наблюдавшиеся между сроками (за 1-3 часа до срока); квадратными скобками обозначены град или гололедные отложения с указанием их диаметра в мм.
Облачность - указаны через наклонную черту общая и нижняя облачность в баллах и высота нижней границы облаков в метрах; квадратными скобками обозначены формы облаков: Ci - перистые, Cs - перисто-слоистые, Cc - перисто-кучевые, Ac - высококучевые, As - высокослоистые, Sc - слоисто-кучевые, Ns - слоисто-дождевые, Cu - кучевые, Cb - кучево-дождевые. Подробнее классификацию облаков см. в Атласе облаков (PDF).
T - Температура воздуха - температура, измеренная на высоте 2 м над землей.
Td - Температура точки росы - температура, при понижении до которой содержащийся в воздухе водяной пар достигнет насыщения.
f - Относительная влажность воздуха - влажноcть воздуха, измеренная на высоте 2 м над землей.
Te - Эффективная температура - температура, которую ощущает одетый по сезону человек в тени. Характеристика душности погоды. При расчете учитывается влияние влажности воздуха и скорости ветра на теплоощущения человека.
Tes - Эффективная температура на солнце - температура, которую ощущает человек, с поправкой на солнечный нагрев. Характеристика знойности погоды. Зависит от высоты солнца над горизонтом, облачности и скорости ветра. Ночью, в пасмурную погоду, а также при ветре 12 м/с и более поправка равна нулю.
P - Атмосферное давление - приведенное к уровню моря атмосферное давление.
Po - Атмосферное давление - измеренное на уровне метеостанции атмосферное давление.
Tmin - Минимальная температура - минимум температуры воздуха на высоте 2 м над землей.
Tmax - Максимальная температура - максимум температуры воздуха на высоте 2 м над землей.
R - Количество осадков - Количество выпавших осадков за период времени, мм. При наведении курсора мыши на число - период времени, за который выпало указанное количество осадков.
R24 - Количество осадков - Количество выпавших осадков за 24 часа, мм.
S - Снежный покров - Высота снежного покрова, см. При наведении курсора мыши на число - состояние снежного покрова и степень покрытия местности в баллах.